Weather History for Peachtree City, GA

Change the Weather History Date:

Thursday, July 11, 2013

  Actual Average Record
Temperature  
Mean Temperature 77 °F 79 °F  
Max Temperature 82 °F 90 °F 97 °F (2000)
Min Temperature 71 °F 68 °F 62 °F (1996)
Degree Days  
Heating Degree Days 0 0  
Month to date heating degree days 0 0  
Since 1 June heating degree days 0 1  
Since 1 July heating degree days 0 0  
Cooling Degree Days 12 14  
Month to date cooling degree days 123 152  
Year to date cooling degree days 626 669  
Since 1 June cooling degree days 480 479  
Growing Degree Days 26 (Base 50)    
Moisture  
Dew Point 71 °F    
Average Humidity 83    
Maximum Humidity 100    
Minimum Humidity 65    
Precipitation  
Precipitation T in 0.19 in 5.24 in (2005)
Month to date precipitation 4.78 2.13  
Year to date precipitation 19.34 27.28  
Snow  
Snow 0.00 in - - ()
Month to date snowfall 0.0  
Since 1 June snowfall 0.0  
Since 1 July snowfall 0.0  
Snow Depth 0.00 in    
Sea Level Pressure  
Sea Level Pressure 29.97 in    
Wind  
Wind Speed 2 mph (NW)    
Max Wind Speed 10 mph    
Max Gust Speed 13 mph    
Visibility 8 miles    
Events Rain    
T = Trace of Precipitation, MM = Missing Value Source: NWS Daily Summary

Daily Weather History Graph

Daily Weather History Graph

Search for Another Location

Airport:

Trip Planner

Search our weather history database for the weather conditions in past years. The results will help you decide how hot, cold, wet, or windy it might be!

Date:

Astronomy

Jul. 11, 2013 Rise Set
Actual Time 6:37 AM EDT 8:49 PM EDT
Civil Twilight 6:09 AM EDT 9:18 PM EDT
Nautical Twilight 5:34 AM EDT 9:52 PM EDT
Astronomical Twilight 4:56 AM EDT 10:30 PM EDT
Moon 9:43 AM EDT (7/11) 10:43 PM EDT (7/11)
Length of Visible Light 15h 09m
Length of Day
14h 12m
Waxing Crescent, 10% of the Moon is Illuminated
Jul 11
Waxing Crescent
Jul 15
First Quarter
Jul 22
Full
Jul 29
Last Quarter
Aug 6
New

Hourly Weather History & Observations

Time (EDT) Temp. Heat Index Dew Point Humidity Pressure Visibility Wind Dir Wind Speed Gust Speed Precip Events Conditions
12:53 AM 72.0 °F - 71.1 °F 97% 29.99 in 8.0 mi Calm Calm - N/A   Clear
1:53 AM 72.0 °F - 71.1 °F 97% 29.99 in 8.0 mi Calm Calm - N/A   Partly Cloudy
2:07 AM 73.4 °F - 71.6 °F 94% 30.01 in 8.0 mi Calm Calm - N/A   Mostly Cloudy
2:53 AM 73.0 °F - 71.1 °F 93% 29.98 in 7.0 mi West 3.5 mph - N/A   Mostly Cloudy
3:14 AM 73.4 °F - 71.6 °F 94% 29.99 in 8.0 mi West 4.6 mph - N/A   Scattered Clouds
3:53 AM 73.0 °F - 71.1 °F 93% 29.96 in 9.0 mi Calm Calm - N/A   Clear
4:05 AM 71.6 °F - 71.6 °F 100% 29.98 in 8.0 mi Calm Calm - N/A   Scattered Clouds
4:15 AM 71.6 °F - 71.6 °F 100% 29.98 in 7.0 mi Calm Calm - N/A   Mostly Cloudy
4:50 AM 71.6 °F - 71.6 °F 100% 29.98 in 7.0 mi Calm Calm - N/A   Scattered Clouds
4:53 AM 72.0 °F - 71.1 °F 97% 29.96 in 6.0 mi Calm Calm - N/A   Partly Cloudy
5:34 AM 71.6 °F - 71.6 °F 100% 29.98 in 7.0 mi Calm Calm - N/A   Mostly Cloudy
5:53 AM 72.0 °F - 70.0 °F 93% 29.96 in 7.0 mi Calm Calm - N/A   Overcast
6:14 AM 71.6 °F - 69.8 °F 94% 29.99 in 7.0 mi Calm Calm - N/A   Scattered Clouds
6:19 AM 71.6 °F - 69.8 °F 94% 29.99 in 7.0 mi Calm Calm - N/A   Mostly Cloudy
6:25 AM 71.6 °F - 69.8 °F 94% 29.99 in 7.0 mi Calm Calm - N/A   Mostly Cloudy
6:53 AM 71.1 °F - 70.0 °F 96% 29.99 in 5.0 mi Calm Calm - N/A   Overcast
7:42 AM 71.6 °F - 71.6 °F 100% 30.01 in 6.0 mi Calm Calm - N/A   Overcast
7:53 AM 72.0 °F - 71.1 °F 97% 29.99 in 6.0 mi Calm Calm - N/A   Mostly Cloudy
8:04 AM 71.6 °F - 71.6 °F 100% 30.01 in 6.0 mi Calm Calm - N/A   Mostly Cloudy
8:30 AM 73.4 °F - 71.6 °F 94% 30.01 in 7.0 mi Calm Calm - N/A   Mostly Cloudy
8:53 AM 73.0 °F - 71.1 °F 93% 29.99 in 8.0 mi Calm Calm - N/A   Overcast
9:53 AM 73.9 °F - 71.1 °F 91% 30.00 in 9.0 mi Calm Calm - N/A   Overcast
10:05 AM 73.4 °F - 71.6 °F 94% 30.01 in 10.0 mi West 3.5 mph - N/A   Overcast
10:42 AM 75.2 °F - 71.6 °F 89% 30.00 in 10.0 mi Calm Calm - N/A   Mostly Cloudy
10:53 AM 78.1 °F - 71.1 °F 79% 29.99 in 10.0 mi Variable 3.5 mph - N/A   Mostly Cloudy
11:02 AM 77.0 °F - 71.6 °F 83% 30.00 in 10.0 mi Calm Calm - N/A   Mostly Cloudy
11:32 AM 77.0 °F - 69.8 °F 78% 30.01 in 10.0 mi Calm Calm - N/A   Overcast
11:53 AM 75.9 °F - 71.1 °F 85% 29.99 in 6.0 mi Variable 3.5 mph - 0.00 in Rain Light Rain
12:53 PM 79.0 °F - 70.0 °F 74% 29.96 in 10.0 mi Calm Calm - 0.00 in   Overcast
1:49 PM 80.6 °F 84.6 °F 71.6 °F 74% 29.97 in 10.0 mi Calm Calm - N/A   Mostly Cloudy
1:53 PM 80.1 °F 83.6 °F 71.1 °F 74% 29.96 in 10.0 mi NW 5.8 mph - N/A   Mostly Cloudy
2:15 PM 82.4 °F 86.3 °F 69.8 °F 66% 29.97 in 10.0 mi Variable 4.6 mph - N/A   Mostly Cloudy
2:25 PM 82.4 °F 86.3 °F 69.8 °F 66% 29.97 in 10.0 mi NNE 5.8 mph - N/A   Mostly Cloudy
2:53 PM 82.0 °F 85.5 °F 69.1 °F 65% 29.95 in 10.0 mi Calm Calm - N/A   Mostly Cloudy
3:16 PM 82.4 °F 86.3 °F 69.8 °F 66% 29.96 in 10.0 mi Variable 3.5 mph - N/A   Mostly Cloudy
3:53 PM 80.1 °F 83.6 °F 71.1 °F 74% 29.93 in 10.0 mi North 6.9 mph - N/A   Mostly Cloudy
4:53 PM 80.1 °F 83.6 °F 71.1 °F 74% 29.92 in 10.0 mi Variable 4.6 mph - N/A   Overcast
5:19 PM 78.8 °F - 71.6 °F 78% 29.93 in 10.0 mi WNW 6.9 mph - N/A   Scattered Clouds
5:53 PM 79.0 °F - 72.0 °F 79% 29.91 in 10.0 mi NW 4.6 mph - N/A   Partly Cloudy
6:17 PM 78.8 °F - 71.6 °F 78% 29.93 in 10.0 mi North 4.6 mph - N/A   Mostly Cloudy
6:27 PM 78.8 °F - 69.8 °F 74% 29.93 in 10.0 mi NNW 4.6 mph - N/A   Partly Cloudy
6:53 PM 80.1 °F 83.6 °F 71.1 °F 74% 29.90 in 10.0 mi NNE 4.6 mph - N/A   Clear
7:53 PM 79.0 °F - 71.1 °F 77% 29.89 in 10.0 mi Calm Calm - N/A   Clear
8:53 PM 75.9 °F - 73.0 °F 91% 29.90 in 10.0 mi Calm Calm - N/A   Clear
9:53 PM 73.9 °F - 73.0 °F 97% 29.91 in 10.0 mi Calm Calm - N/A   Clear
10:53 PM 73.0 °F - 72.0 °F 96% 29.91 in 9.0 mi Calm Calm - N/A   Clear
11:53 PM 72.0 °F - 71.1 °F 97% 29.91 in 8.0 mi Calm Calm - N/A   Clear